Theta_e
347 348 340 328 326 328 328 329 330 327 326 327 327 328 330 331 332 333 333 334 332 333 327 324 324 324 325 330 331 335 335 332 336 337 337 337 338 337 336 333 333 335 334
347 348 335 326 329 328 330 331 328 326 327 329 329 331 335 331 329 327 328 331 332 334 330 325 326 327 333 334 334 335 336 333 331 337 339 337 338 337 332 332 335 336 335
348 347 331 326 330 330 331 330 329 330 331 335 336 332 327 325 325 328 330 331 331 331 330 328 330 332 334 335 334 335 333 334 338 339 339 342 340 335 332 334 337 337 336
347 337 328 326 330 330 332 333 337 335 332 329 327 326 326 329 334 334 332 331 332 333 334 333 334 335 335 334 333 338 339 340 339 335 339 340 338 336 334 335 336 334 335
336 331 327 326 329 330 331 332 333 333 332 331 330 329 327 325 326 327 329 331 333 334 334 334 336 335 334 335 335 337 342 341 342 337 335 337 338 332 333 333 335 336 336
332 328 326 326 328 329 329 329 328 330 331 331 331 331 328 326 326 327 327 328 331 331 335 337 337 337 335 335 335 335 334 341 342 339 333 331 338 334 331 332 332 334 334
331 328 325 324 326 328 328 328 327 328 330 331 331 332 329 327 328 327 327 326 327 332 335 338 338 336 335 336 335 334 334 338 342 341 336 332 336 338 337 333 331 333 334
329 327 326 324 324 325 326 327 328 328 330 331 331 331 331 330 330 329 328 328 331 336 338 338 339 338 336 336 334 334 333 338 335 338 336 335 336 334 333 329 330 333 334
325 326 325 325 325 327 328 329 328 329 331 334 335 335 338 339 338 333 329 330 334 335 338 339 339 340 337 337 335 334 333 336 338 335 335 331 330 333 331 327 327 331 332
327 327 328 330 332 332 333 336 337 338 339 340 340 340 339 339 335 336 332 332 336 334 334 336 338 340 340 337 337 335 335 334 338 337 334 332 329 329 330 332 334 326 330
334 335 335 335 336 337 340 340 340 340 340 341 340 337 339 337 337 334 334 331 339 330 336 335 338 339 338 335 335 336 338 335 339 340 339 333 331 329 326 325 330 333 326
340 338 338 337 337 338 339 339 338 339 339 340 333 335 336 335 334 339 335 334 333 333 340 338 339 338 338 336 336 342 340 338 335 338 338 331 329 328 332 331 327 330 334
347 342 339 337 337 336 337 339 337 333 334 335 335 334 336 337 335 339 337 335 331 339 344 342 343 343 343 343 342 341 344 342 339 336 340 339 335 333 338 334 330 329 330
345 340 337 336 336 338 339 340 337 333 333 335 337 337 340 341 340 340 337 335 341 342 344 342 343 345 344 345 345 345 344 344 341 340 338 340 339 339 339 336 333 332 329
348 347 341 338 339 339 339 341 342 343 342 339 340 345 345 343 341 341 337 335 341 344 345 345 346 344 343 345 343 342 343 339 342 339 340 338 338 336 339 339 337 333 331
350 350 346 344 343 339 342 345 346 347 344 342 344 345 344 344 343 341 340 341 342 343 345 346 346 344 344 344 343 344 345 344 340 340 339 341 339 336 338 338 336 337 334
349 350 348 347 345 345 346 346 347 348 346 345 347 346 346 346 343 342 341 340 342 344 345 346 344 345 345 344 344 345 346 345 344 342 340 340 340 338 336 335 336 338 336
349 347 348 348 347 346 345 345 347 347 347 345 347 347 347 345 343 340 340 340 342 345 345 345 346 345 346 345 344 345 347 345 343 341 341 341 339 337 335 335 335 336 334
345 347 347 347 347 348 347 347 346 348 346 344 347 347 347 346 344 340 340 340 342 345 345 347 345 345 345 343 345 345 346 346 343 343 344 343 343 339 335 335 335 335 334
347 347 348 346 348 348 349 349 348 347 344 344 347 347 348 345 345 342 340 340 338 343 344 344 344 344 345 345 346 344 343 344 344 343 342 344 344 343 342 338 336 335 334
347 346 348 348 348 348 349 349 347 346 345 344 346 346 347 347 343 342 341 340 334 335 342 344 341 340 341 342 346 345 345 344 344 345 345 343 343 344 343 342 342 341 336
345 345 348 348 348 348 349 348 347 346 346 347 348 346 345 346 345 341 341 340 340 336 337 340 342 340 341 338 341 343 343 344 345 344 344 345 346 344 341 343 343 343 342
346 348 348 347 349 349 348 348 346 346 346 348 348 347 343 343 341 343 342 340 340 341 337 337 343 340 343 345 344 343 342 340 343 345 344 346 346 344 343 343 343 343 343
344 347 346 348 347 348 348 347 345 345 344 347 346 346 344 344 343 342 343 344 343 341 342 340 342 341 345 346 343 346 343 343 338 342 344 345 346 344 344 344 344 343 344
342 344 348 349 350 349 345 348 345 345 345 346 345 344 344 345 344 343 343 341 344 342 343 343 342 345 345 344 345 346 339 343 341 338 341 341 342 344 345 345 345 346 344
346 349 350 350 349 347 347 346 346 344 344 345 344 344 345 345 345 345 346 346 342 343 342 342 341 342 347 348 347 346 346 345 342 340 341 341 342 342 344 345 345 346 346
Wind_Speed
25 27 27 29 31 30 29 29 28 27 27 27 26 26 26 24 23 20 18 17 16 15 13 14 14 14 13 13 14 15 15 14 17 19 20 20 20 20 18 19 19 19 19
31 28 28 29 30 30 30 29 29 28 28 27 26 25 23 23 21 20 18 16 16 15 14 14 14 15 14 14 15 16 17 16 15 18 20 20 19 18 18 20 19 19 18
32 30 30 30 30 29 28 28 27 27 26 25 24 23 22 21 19 18 17 17 16 15 15 15 14 15 15 15 15 16 17 19 16 15 15 17 18 16 17 18 18 18 19
34 34 32 31 30 28 27 27 26 25 24 23 22 20 19 18 18 18 17 15 14 14 14 13 14 14 16 14 15 14 15 16 15 14 14 16 16 14 15 17 17 17 18
34 34 31 30 29 28 26 24 24 23 21 20 19 18 17 17 16 16 14 14 13 12 12 12 12 12 11 12 10 10 10 8 11 13 11 13 14 16 15 15 16 17 17
34 32 30 29 28 27 25 23 20 19 19 17 16 15 15 15 15 14 12 12 10 9 10 10 9 9 9 8 7 10 8 10 12 11 12 12 14 15 16 15 15 15 15
33 32 29 28 28 27 24 21 19 17 17 16 15 14 14 13 12 12 10 10 9 7 7 6 7 6 6 5 8 11 10 12 11 8 9 14 15 15 15 14 15 14 14
32 31 29 26 26 24 22 19 19 17 16 15 13 13 12 11 9 8 7 7 7 6 4 4 4 5 6 7 8 10 12 12 13 10 10 12 14 15 14 15 14 14 13
28 29 28 27 25 23 21 19 19 17 15 13 10 10 9 8 5 4 5 5 6 4 3 2 1 3 5 6 8 10 13 13 11 13 11 12 13 12 13 15 14 13 13
25 25 27 26 25 24 22 19 17 15 13 11 9 8 10 4 6 5 5 5 4 2 1 2 2 2 4 6 8 9 11 15 13 16 13 15 12 9 11 12 12 11 12
30 27 25 26 24 23 20 18 16 15 13 12 10 8 9 6 6 11 10 7 5 3 4 5 5 4 4 5 6 9 9 14 14 15 14 17 15 13 10 7 8 9 12
30 30 27 25 24 21 20 18 15 14 14 13 11 8 10 9 10 10 14 11 7 6 6 6 6 4 1 2 5 4 7 11 16 15 16 18 18 16 12 11 9 8 10
27 29 29 26 24 22 20 18 15 13 13 13 12 10 9 9 10 11 13 12 7 6 4 6 5 4 2 2 2 7 7 10 14 17 17 17 17 16 11 14 13 12 11
26 25 29 28 25 21 18 17 13 12 11 10 8 10 8 8 8 7 12 10 6 6 5 6 5 4 5 6 4 6 8 9 13 17 19 17 15 17 16 14 15 15 14
26 23 25 26 25 22 19 16 12 10 9 9 8 6 6 6 6 7 10 9 9 6 5 5 5 7 6 5 9 7 9 9 13 15 18 19 18 15 19 17 15 15 16
22 21 24 23 21 18 18 15 12 12 9 10 6 5 5 6 5 6 9 9 9 7 7 6 5 6 7 7 10 8 9 5 13 11 16 19 22 15 20 17 17 19 20
24 23 23 24 21 15 15 13 13 12 11 11 7 5 6 6 6 7 8 10 9 10 9 6 8 7 5 7 6 6 3 5 6 7 13 17 19 22 19 18 19 20 23
27 21 25 28 25 20 15 15 16 13 13 12 10 8 7 6 6 7 8 7 12 9 8 5 6 1 3 3 7 7 7 5 6 6 7 15 20 18 20 20 19 21 22
24 24 24 26 27 22 20 16 15 14 14 14 14 12 9 8 7 6 7 8 12 10 6 4 1 5 3 4 4 3 6 3 8 8 7 10 16 16 16 16 19 21 22
26 20 25 29 25 25 21 18 15 15 15 15 15 13 11 10 10 8 7 9 13 12 8 5 2 5 5 3 4 0 3 5 6 8 10 10 6 11 16 15 13 17 21
27 25 28 27 28 24 21 17 15 16 16 16 16 15 10 9 8 8 9 9 12 11 11 6 1 3 5 7 2 4 2 6 5 5 8 9 7 7 12 13 12 12 17
21 20 19 26 26 23 16 12 12 14 16 16 17 14 10 9 13 8 11 9 12 13 12 8 4 2 1 1 2 5 5 8 10 8 9 10 10 11 11 12 12 10 10
18 19 19 21 19 18 13 14 15 15 15 15 13 10 7 9 10 11 11 10 11 11 14 10 6 3 1 3 4 3 3 3 7 6 9 8 8 16 13 14 13 11 12
20 20 18 15 15 13 16 16 16 14 12 10 9 9 9 11 10 8 10 11 11 13 12 11 10 7 5 5 3 3 3 6 3 4 8 10 8 9 14 18 15 13 13
19 19 18 16 16 16 16 16 16 14 12 10 10 11 10 12 12 10 9 10 14 14 13 12 15 11 7 9 7 8 6 5 6 10 6 12 12 13 12 13 13 16 15
17 18 18 17 15 14 14 16 15 12 10 11 8 10 10 11 10 10 10 10 11 14 14 14 15 16 12 10 9 6 7 5 4 5 6 7 7 10 14 17 15 15 15
Wind_Direction
158 151 151 146 143 143 140 138 135 133 131 129 128 128 128 127 131 131 128 121 117 118 110 111 112 116 118 114 114 116 116 116 118 121 123 124 125 131 136 133 131 127 127
153 153 154 149 145 142 137 137 136 134 133 132 132 132 130 127 126 124 121 118 119 120 115 115 115 114 114 116 120 121 118 119 123 125 126 126 126 124 129 133 130 129 128
153 158 155 153 147 143 140 137 134 132 132 132 131 130 129 126 124 122 119 119 118 120 119 120 119 118 117 123 126 127 126 124 123 121 124 128 122 121 131 133 131 131 133
157 158 157 156 152 147 143 140 136 134 135 134 132 131 130 127 126 122 119 118 116 116 117 122 114 113 112 116 121 123 125 121 117 126 131 126 129 128 134 135 135 138 135
158 158 158 159 157 151 149 146 144 143 142 140 137 134 131 130 126 122 122 121 117 116 120 119 123 118 125 122 117 122 131 130 140 118 137 138 136 134 136 137 137 138 138
158 159 158 161 161 159 155 152 151 150 149 147 143 141 138 135 133 130 128 123 119 122 118 116 132 144 145 150 141 160 139 135 136 137 136 147 141 136 135 136 140 140 137
161 161 161 163 166 168 168 167 166 161 159 157 151 146 146 143 137 136 132 126 125 122 128 138 148 157 168 167 154 164 153 152 154 159 157 141 134 134 134 140 142 143 142
161 163 164 165 168 174 177 175 175 173 169 167 164 162 160 152 148 143 138 133 125 120 121 132 168 189 189 188 165 180 186 173 169 179 157 154 152 145 142 142 140 144 144
163 164 164 166 169 172 174 175 174 176 178 179 180 179 168 151 151 167 160 146 129 123 110 101 155 210 210 193 187 185 196 189 186 173 170 152 139 137 139 133 137 142 144
165 169 168 171 172 174 175 178 179 184 190 192 189 192 192 235 249 222 213 175 147 129 295 288 317 242 220 207 193 190 203 193 187 186 190 192 173 151 128 126 133 145 155
169 176 179 178 177 179 181 186 189 193 194 194 196 221 216 243 272 248 227 216 202 256 268 255 261 241 223 219 207 198 200 200 198 200 200 199 203 187 165 147 137 147 151
177 179 183 186 184 184 191 194 197 203 202 207 218 231 244 253 264 264 228 224 230 269 276 238 243 232 272 262 224 188 204 208 213 209 198 199 201 198 210 202 184 170 165
180 187 187 192 190 191 197 202 202 211 214 224 237 248 266 270 271 278 216 214 242 242 256 224 208 225 200 207 215 232 231 219 220 211 205 214 206 206 209 202 189 186 181
177 179 188 196 197 198 203 215 214 222 233 238 249 260 277 277 280 279 212 218 221 228 230 214 211 250 266 249 250 220 227 230 223 217 206 210 210 213 207 199 195 190 192
182 187 193 198 199 203 205 206 209 227 251 250 252 248 279 292 273 242 203 211 215 207 223 213 248 264 282 273 272 269 255 234 224 221 215 213 215 221 209 204 200 205 203
197 196 190 188 191 194 198 209 227 242 245 250 239 246 268 270 259 234 208 208 205 207 197 216 249 261 263 281 298 281 270 266 216 247 226 218 212 212 212 215 215 212 210
192 195 202 191 184 189 206 213 226 234 231 250 243 266 274 270 263 236 217 214 200 193 207 220 252 286 297 269 284 276 260 237 211 229 220 217 218 218 216 213 216 212 210
193 203 200 203 196 198 204 218 228 240 241 238 239 260 261 280 262 234 219 209 201 207 204 221 256 335 318 257 260 284 294 285 183 172 197 206 210 210 210 207 210 208 208
202 192 197 208 207 205 216 226 236 244 248 239 238 247 254 265 250 247 225 210 204 204 205 241 214 276 263 280 283 253 261 193 176 183 207 194 199 206 203 214 211 208 211
191 199 195 205 204 212 222 230 234 238 246 239 246 248 245 263 234 240 226 223 209 221 218 242 308 306 343 296 312 229 210 206 183 191 189 183 202 213 210 206 215 218 219
197 193 192 196 206 209 210 218 223 238 242 243 249 251 263 268 224 247 222 210 211 216 220 251 282 304 316 317 209 183 186 188 216 201 191 194 209 181 189 201 208 216 224
203 194 190 206 213 216 207 215 232 236 238 249 252 256 253 244 248 253 213 204 221 217 219 234 243 272 33 273 237 184 171 195 206 203 205 206 196 196 189 205 201 201 215
189 197 192 189 197 202 211 219 223 227 232 239 251 257 265 265 264 237 209 210 227 216 220 219 225 236 241 263 231 114 164 200 195 213 222 192 222 199 205 215 217 223 233
203 202 196 195 189 200 213 220 225 230 237 246 263 261 260 262 261 239 231 228 236 223 225 216 217 223 223 242 237 205 271 238 208 186 211 201 190 205 220 228 222 226 232
185 198 204 199 196 209 217 216 222 231 238 246 256 263 267 267 257 251 247 240 230 222 217 217 216 217 219 238 264 273 276 234 240 241 192 190 206 223 226 223 218 225 231
187 197 198 203 202 210 210 207 219 234 230 243 259 268 270 265 257 256 248 244 239 231 225 221 224 220 219 233 238 257 285 288 316 225 233 222 215 230 239 235 237 237 237